F1ZRP-13 Weather Reports


time (UTC)temp
F
wind
direction
speed
knots
gust
knots
rain 1hr
in
rain 24hr
in
rain mn
in
humidity
%
barometer
mb
20260506193623 52 0.0 0.0 0.00 0.00 0.00 81 1011.1
20260506192004 52 0.0 0.0 0.00 0.00 0.00 83 1010.9
20260506190642 52 0.0 0.0 0.00 0.00 0.00 82 1010.7
20260506185136 53 0.0 0.0 0.00 0.00 0.00 81 1010.7
20260506183407 53 0.0 0.0 0.00 0.00 0.00 80 1010.5
20260506181717 53 0.0 0.0 0.00 0.00 0.00 80 1010.3
20260506180230 54 0.0 0.0 0.00 0.00 0.00 81 1010.1
20260506174859 54 0.0 0.0 0.00 0.00 0.00 80 1009.9
20260506173204 55 0.0 0.0 0.00 0.00 0.00 77 1009.7
20260506171702 56 0.0 0.0 0.00 0.00 0.00 77 1009.5
20260506170342 56 0.0 0.0 0.00 0.00 0.00 77 1009.5
20260506164803 57 0.0 0.0 0.00 0.00 0.00 78 1009.4
20260506162917 55 0.0 0.0 0.00 0.00 0.00 82 1009.4
20260506161510 55 0.0 0.0 0.00 0.00 0.00 83 1009.4
20260506160238 54 0.0 0.0 0.00 0.00 0.00 84 1009.4
20260506154945 55 0.0 0.0 0.00 0.00 0.00 84 1009.4
20260506142640 55 0.0 0.0 0.00 0.00 0.00 90 1008.9
20260506141121 54 0.0 0.0 0.00 0.00 0.00 91 1008.9
20260506135837 55 0.0 0.0 0.00 0.00 0.00 91 1008.7
20260506134545 55 0.0 0.0 0.00 0.00 0.00 91 1008.7
20260506132852 54 0.0 0.0 0.00 0.00 0.00 93 1008.9
20260506131633 53 0.0 0.0 0.00 0.00 0.00 93 1009.0
20260506130056 53 0.0 0.0 0.00 0.00 0.00 93 1008.9
20260506124728 53 0.0 0.0 0.00 0.00 0.00 94 1008.7
20260506123328 53 0.0 0.0 0.00 0.00 0.00 94 1008.6
20260506121831 54 0.0 0.0 0.00 0.00 0.00 94 1008.5
20260506120323 53 0.0 0.0 0.00 0.00 0.00 94 1008.4
20260506115215 53 0.0 0.0 0.00 0.00 0.00 94 1008.2
20260506112716 55 0.0 0.0 0.00 0.00 0.00 93 1008.1
20260506111624 54 0.0 0.0 0.00 0.00 0.00 94 1008.1
20260506110039 55 0.0 0.0 0.00 0.00 0.00 94 1008.0
20260506104620 54 0.0 0.0 0.00 0.00 0.00 94 1007.9
20260506102808 54 0.0 0.0 0.00 0.00 0.00 95 1007.8
20260506101135 53 0.0 0.0 0.00 0.00 0.00 95 1007.7
20260506095501 55 0.0 0.0 0.00 0.00 0.00 95 1007.5
20260506094322 55 0.0 0.0 0.00 0.00 0.00 95 1007.4
20260506093125 54 0.0 0.0 0.00 0.00 0.00 95 1007.4
20260506091845 54 0.0 0.0 0.00 0.00 0.00 95 1007.2
20260506090423 54 0.0 0.0 0.00 0.00 0.00 95 1007.2
20260506084448 55 0.0 0.0 0.00 0.00 0.00 96 1007.0
20260506083219 55 0.0 0.0 0.00 0.00 0.00 95 1006.9
20260506081557 54 0.0 0.0 0.00 0.00 0.00 96 1006.9
20260506072910 53 0.0 0.0 0.00 0.00 0.00 96 1006.8
20260506071546 53 0.0 0.0 0.00 0.00 0.00 96 1006.8
20260506061939 52 0.0 0.0 0.00 0.00 0.00 96 1006.8
20260506050350 51 0.0 0.0 0.00 0.00 0.00 96 1006.5
20260506044545 51 0.0 0.0 0.00 0.00 0.00 96 1006.4
20260506043122 51 0.0 0.0 0.00 0.00 0.00 96 1006.5
20260506041918 51 0.0 0.0 0.00 0.00 0.00 96 1006.5
20260506035015 51 0.0 0.0 0.00 0.00 0.00 96 1006.7
20260506033817 51 0.0 0.0 0.00 0.00 0.00 96 1006.8
20260506032814 51 0.0 0.0 0.00 0.00 0.00 96 1006.8
20260506031356 51 0.0 0.0 0.00 0.00 0.00 96 1007.0
20260506025756 51 0.0 0.0 0.00 0.00 0.00 96 1007.1
20260506024245 51 0.0 0.0 0.00 0.00 0.00 96 1007.0
20260506022600 51 0.0 0.0 0.00 0.00 0.00 96 1007.0
20260506020703 52 0.0 0.0 0.00 0.00 0.00 96 1007.0
20260506015236 52 0.0 0.0 0.00 0.00 0.00 96 1006.9
20260506013548 52 0.0 0.0 0.00 0.00 0.00 96 1007.0
20260506011923 52 0.0 0.0 0.00 0.00 0.00 96 1007.2
20260506010058 52 0.0 0.0 0.00 0.00 0.00 96 1007.4
20260506004546 53 0.0 0.0 0.00 0.00 0.00 96 1007.6
20260506002934 53 0.0 0.0 0.00 0.00 0.00 96 1007.7
20260506001201 53 0.0 0.0 0.00 0.00 0.00 96 1007.9
20260506000116 52 0.0 0.0 0.00 0.00 0.00 96 1008.0
20260505234407 52 0.0 0.0 0.00 0.00 0.00 96 1008.0
20260505232929 52 0.0 0.0 0.00 0.00 0.00 96 1008.1
20260505231331 52 0.0 0.0 0.00 0.00 0.00 96 1008.1
20260505225700 53 0.0 0.0 0.00 0.00 0.00 96 1008.1
20260505224149 53 0.0 0.0 0.00 0.00 0.00 96 1008.1
20260505222657 54 0.0 0.0 0.00 0.00 0.00 96 1008.1
20260505221213 54 0.0 0.0 0.00 0.00 0.00 96 1008.2
20260505215506 54 0.0 0.0 0.00 0.00 0.00 96 1008.3
20260505214145 54 0.0 0.0 0.00 0.00 0.00 96 1008.4
20260505212619 54 0.0 0.0 0.00 0.00 0.00 96 1008.4
20260505211032 54 0.0 0.0 0.00 0.00 0.00 96 1008.4
20260505205635 54 0.0 0.0 0.00 0.00 0.00 96 1008.5
20260505204120 54 0.0 0.0 0.00 0.00 0.00 96 1008.5
20260505202458 55 0.0 0.0 0.00 0.00 0.00 96 1008.6
20260505201021 55 0.0 0.0 0.00 0.00 0.00 96 1008.4
20260505195547 55 0.0 0.0 0.00 0.00 0.00 96 1008.3